Printer-friendly version

IAU Minor Planet Center

Minor Planet Center

MPEC 2008-B33 : 2008 BW2

The following Minor Planet Electronic Circular may be linked-to from your own Web pages, but must not otherwise be redistributed electronically.


Read MPEC 2008-B32 Read MPEC 2008-B34


M.P.E.C. 2008-B33                                Issued 2008 Jan. 22, 13:01 UT

     The Minor Planet Electronic Circulars contain information on unusual
         minor planets and routine data on comets.  They are published
   on behalf of Commission 20 of the International Astronomical Union by the
          Minor Planet Center, Smithsonian Astrophysical Observatory,
                          Cambridge, MA 02138, U.S.A.

             Prepared using the Tamkin Foundation Computer Network

                              MPC@CFA.HARVARD.EDU
          URL http://www.cfa.harvard.edu/iau/mpc.html  ISSN 1523-6714

                                   2008 BW2

Observations:
     K08B02W* C2008 01 19.38910 09 48 27.32 +21 56 31.3          20.6 V EB033G96
     K08B02W  C2008 01 19.39351 09 48 29.84 +21 57 30.7          20.4 V EB033G96
     K08B02W  C2008 01 19.39791 09 48 32.18 +21 58 28.2          22.0 V EB033G96
     K08B02W  C2008 01 19.40230 09 48 34.63 +21 59 27.9          20.8 V EB033G96
     K08B02W  C2008 01 19.42429 09 48 46.64 +22 04 14.0          20.8 V EB033G96
     K08B02W  C2008 01 19.42483 09 48 46.93 +22 04 21.0                 EB033G96
     K08B02W  C2008 01 19.42536 09 48 47.27 +22 04 27.8                 EB033G96
     K08B02W  C2008 01 19.42591 09 48 47.56 +22 04 34.6          21.1 V EB033G96
     K08B02W  C2008 01 19.50161 09 49 30.10 +22 19 46.0          20.7 V EB033G96
     K08B02W  C2008 01 19.50208 09 49 30.39 +22 19 52.3          21.8 V EB033G96
     K08B02W  C2008 01 19.50255 09 49 30.68 +22 19 56.8          21.4 V EB033G96
     K08B02W  C2008 01 19.50304 09 49 30.90 +22 20 03.0          21.0 V EB033G96
     K08B02W  C2008 01 20.35472 09 59 08.55 +24 35 06.5          20.5 V EB033G96
     K08B02W  C2008 01 20.35684 09 59 09.07 +24 35 21.8                 EB033G96
     K08B02W  C2008 01 20.35906 09 59 09.65 +24 35 38.9          21.5 V EB033G96
     K08B02W  C2008 01 20.36119 09 59 10.17 +24 35 54.6          21.8 V EB033G96

Observer details:
G96 Mt. Lemmon Survey.  Observer A. Boattini.  Measurers E. C. Beshore,
    A. Boattini, G. J. Garradd, A. R. Gibbs, A. D. Grauer, R. E. Hill,
    R. A. Kowalski, S. M. Larson, R. H. McNaught.  1.5-m reflector + CCD.

Orbital elements:
2008 BW2                                                 Earth MOID = 0.0026 AU
Epoch 2007 Oct. 27.0 TT = JDT 2454400.5                 MPC
M 330.23886              (2000.0)            P               Q
n   0.60463249     Peri.  318.16037     +0.23921824     -0.96934339
a   1.3850806      Node   117.92902     +0.90684540     +0.20239672
e   0.3300693      Incl.    3.64094     +0.34699576     +0.13931605
P   1.63           H   29.7           G   0.15           U   7
Residuals in seconds of arc
080119 G96  0.2-  0.1+    080119 G96  0.3+  0.3+    080120 G96  0.1+  0.2+
080119 G96  1.0+  0.1+    080119 G96  0.1+  0.1+    080120 G96  0.1-  0.4-
080119 G96  0.2-  1.2-    080119 G96  0.1+  0.6-    080120 G96  0.2+  0.1+
080119 G96  0.3+  0.2+    080119 G96  0.4+  0.4+    080120 G96  0.0   0.0
080119 G96  0.3-  0.2+    080119 G96  0.6+  0.5-
080119 G96  0.4-  0.3+    080119 G96  0.4-  0.2+

Ephemeris:
2008 BW2                 a,e,i = 1.39, 0.33, 4                   q = 0.9279
Date    TT    R. A. (2000) Decl.     Delta      r     Elong.  Phase     V
2008 01 15    23 32.87   -41 32.3    0.00761  0.979    51.8   127.8    24.6
2008 01 16    01 06.89   -49 24.3    0.00405  0.982    67.5   112.3    22.0
2008 01 17    07 06.69   -24 53.2    0.00249  0.985   132.9    47.0    18.4
2008 01 18    09 10.25   +11 21.2    0.00526  0.989   160.0    19.9    19.3
2008 01 19    09 41.91   +20 16.9    0.00897  0.992   156.4    23.4    20.6
2008 01 20    09 55.79   +23 49.6    0.0128   0.995   154.2    25.5    21.4
2008 01 21    10 03.48   +25 41.4    0.0167   0.999   153.2    26.3    22.0
2008 01 22    10 08.32   +26 49.9    0.0207   1.002   152.9    26.6    22.5

Timothy B. Spahr             (C) Copyright 2008 MPC           M.P.E.C. 2008-B33

Read MPEC 2008-B32 Read MPEC 2008-B34


Our Web policy. Index to the CBAT/MPC/ICQ pages.


Valid HTML 4.01!